Time,TemperatureF,DewpointF,PressureIn,WindDirection,WindDirectionDegrees,WindSpeedMPH,WindSpeedGustMPH,Humidity,HourlyPrecipIn,Conditions,Clouds,dailyrainin,SoftwareType,DateUTC
2013-07-19 00:00:00,54.5,53.1,29.95,SW,221,0.0,5.0,95,0.00,,,0.00,Wunderground v.1.15,2013-07-19 07:00:00,
2013-07-19 00:05:00,54.5,52.8,29.95,SW,221,0.0,5.0,94,0.00,,,0.00,Wunderground v.1.15,2013-07-19 07:05:00,
2013-07-19 00:15:00,54.5,52.8,29.95,SW,221,1.0,1.0,94,0.00,,,0.00,Wunderground v.1.15,2013-07-19 07:15:00,
2013-07-19 00:20:00,54.4,52.7,29.95,SW,221,1.0,1.0,94,0.00,,,0.00,Wunderground v.1.15,2013-07-19 07:20:00,
2013-07-19 00:30:00,54.3,52.6,29.95,SW,221,0.0,0.0,94,0.00,,,0.00,Wunderground v.1.15,2013-07-19 07:30:00,
2013-07-19 00:35:00,54.3,52.9,29.94,SW,221,0.0,1.0,95,0.00,,,0.00,Wunderground v.1.15,2013-07-19 07:35:00,
2013-07-19 00:40:00,54.2,52.8,29.94,SW,221,1.0,2.0,95,0.00,,,0.00,Wunderground v.1.15,2013-07-19 07:40:00,
2013-07-19 00:45:00,54.2,52.5,29.94,SW,221,1.0,2.0,94,0.00,,,0.00,Wunderground v.1.15,2013-07-19 07:45:00,
2013-07-19 00:50:00,54.2,52.5,29.94,SW,221,0.0,0.0,94,0.00,,,0.00,Wunderground v.1.15,2013-07-19 07:50:00,
2013-07-19 00:55:00,54.2,52.5,29.94,SW,221,0.0,0.0,94,0.00,,,0.00,Wunderground v.1.15,2013-07-19 07:55:00,
2013-07-19 01:05:00,54.1,52.7,29.94,SW,221,0.0,4.0,95,0.00,,,0.00,Wunderground v.1.15,2013-07-19 08:05:00,
2013-07-19 01:10:00,54.1,52.7,29.94,SW,221,0.0,4.0,95,0.00,,,0.00,Wunderground v.1.15,2013-07-19 08:10:00,
2013-07-19 01:15:00,54.1,52.7,29.93,SW,221,0.0,4.0,95,0.00,,,0.00,Wunderground v.1.15,2013-07-19 08:15:00,
2013-07-19 01:20:00,54.0,52.6,29.94,SW,221,0.0,4.0,95,0.00,,,0.00,Wunderground v.1.15,2013-07-19 08:20:00,
2013-07-19 01:25:00,54.1,52.7,29.93,SW,221,0.0,4.0,95,0.00,,,0.00,Wunderground v.1.15,2013-07-19 08:25:00,
2013-07-19 01:35:00,53.9,52.5,29.93,SW,221,0.0,4.0,95,0.00,,,0.00,Wunderground v.1.15,2013-07-19 08:35:00,
2013-07-19 01:40:00,53.9,52.5,29.93,SW,221,0.0,4.0,95,0.00,,,0.00,Wunderground v.1.15,2013-07-19 08:40:00,
2013-07-19 01:45:00,53.8,52.4,29.93,SW,221,0.0,4.0,95,0.00,,,0.00,Wunderground v.1.15,2013-07-19 08:45:00,
2013-07-19 01:50:00,53.8,52.4,29.93,SW,221,0.0,4.0,95,0.00,,,0.00,Wunderground v.1.15,2013-07-19 08:50:00,
2013-07-19 02:00:00,53.8,52.4,29.93,SW,221,0.0,4.0,95,0.00,,,0.00,Wunderground v.1.15,2013-07-19 09:00:00,
2013-07-19 02:05:00,53.8,52.4,29.93,SW,221,0.0,4.0,95,0.00,,,0.00,Wunderground v.1.15,2013-07-19 09:05:00,
2013-07-19 02:10:00,53.7,52.3,29.93,SW,221,0.0,4.0,95,0.00,,,0.00,Wunderground v.1.15,2013-07-19 09:10:00,
2013-07-19 02:15:00,53.7,52.3,29.93,SW,221,0.0,4.0,95,0.00,,,0.00,Wunderground v.1.15,2013-07-19 09:15:00,
2013-07-19 02:20:00,53.7,52.3,29.93,SW,221,0.0,4.0,95,0.00,,,0.00,Wunderground v.1.15,2013-07-19 09:20:00,
2013-07-19 02:30:00,53.6,52.2,29.92,SW,221,0.0,4.0,95,0.00,,,0.00,Wunderground v.1.15,2013-07-19 09:30:00,
2013-07-19 02:35:00,53.5,52.4,29.92,SW,221,0.0,4.0,96,0.00,,,0.00,Wunderground v.1.15,2013-07-19 09:35:00,
2013-07-19 02:40:00,53.5,52.4,29.92,SW,221,0.0,4.0,96,0.00,,,0.00,Wunderground v.1.15,2013-07-19 09:40:00,
2013-07-19 02:45:00,53.5,52.4,29.92,SW,221,0.0,4.0,96,0.00,,,0.00,Wunderground v.1.15,2013-07-19 09:45:00,
2013-07-19 02:50:00,53.4,52.3,29.92,SW,221,0.0,4.0,96,0.00,,,0.00,Wunderground v.1.15,2013-07-19 09:50:00,
2013-07-19 03:00:00,53.3,52.2,29.92,SW,221,0.0,4.0,96,0.00,,,0.00,Wunderground v.1.15,2013-07-19 10:00:00,
2013-07-19 03:05:00,53.3,52.2,29.92,SW,221,0.0,4.0,96,0.00,,,0.00,Wunderground v.1.15,2013-07-19 10:05:00,
2013-07-19 03:10:00,53.3,52.2,29.92,SW,221,0.0,4.0,96,0.00,,,0.00,Wunderground v.1.15,2013-07-19 10:10:00,
2013-07-19 03:15:00,53.2,52.1,29.92,SW,221,0.0,4.0,96,0.00,,,0.00,Wunderground v.1.15,2013-07-19 10:15:00,
2013-07-19 03:20:00,53.2,52.1,29.92,SW,221,0.0,4.0,96,0.00,,,0.00,Wunderground v.1.15,2013-07-19 10:20:00,
2013-07-19 03:25:00,53.1,52.0,29.92,SW,221,0.0,4.0,96,0.00,,,0.00,Wunderground v.1.15,2013-07-19 10:25:00,
2013-07-19 03:35:00,53.0,51.9,29.91,SW,221,0.0,4.0,96,0.00,,,0.00,Wunderground v.1.15,2013-07-19 10:35:00,
2013-07-19 03:40:00,52.9,51.8,29.91,SW,221,0.0,4.0,96,0.00,,,0.00,Wunderground v.1.15,2013-07-19 10:40:00,
2013-07-19 03:45:00,52.8,51.7,29.91,SW,221,0.0,4.0,96,0.00,,,0.00,Wunderground v.1.15,2013-07-19 10:45:00,
2013-07-19 03:50:00,52.7,51.9,29.92,SW,221,0.0,4.0,97,0.00,,,0.00,Wunderground v.1.15,2013-07-19 10:50:00,
2013-07-19 03:55:00,52.6,51.8,29.92,SW,221,0.0,4.0,97,0.00,,,0.00,Wunderground v.1.15,2013-07-19 10:55:00,
2013-07-19 04:00:00,52.6,51.8,29.92,SW,221,0.0,4.0,97,0.00,,,0.00,Wunderground v.1.15,2013-07-19 11:00:00,
2013-07-19 04:10:00,52.4,51.6,29.92,SW,221,0.0,4.0,97,0.00,,,0.00,Wunderground v.1.15,2013-07-19 11:10:00,
2013-07-19 04:15:00,52.4,51.6,29.92,SW,221,0.0,4.0,97,0.00,,,0.00,Wunderground v.1.15,2013-07-19 11:15:00,
2013-07-19 04:20:00,52.3,51.5,29.92,SW,221,0.0,4.0,97,0.00,,,0.00,Wunderground v.1.15,2013-07-19 11:20:00,
2013-07-19 04:25:00,52.4,51.9,29.92,SW,221,0.0,4.0,98,0.00,,,0.00,Wunderground v.1.15,2013-07-19 11:25:00,
2013-07-19 04:30:00,52.4,51.9,29.92,SW,221,0.0,4.0,98,0.00,,,0.00,Wunderground v.1.15,2013-07-19 11:30:00,
2013-07-19 04:35:00,52.4,51.9,29.91,SW,221,0.0,4.0,98,0.00,,,0.00,Wunderground v.1.15,2013-07-19 11:35:00,
2013-07-19 04:40:00,52.5,52.0,29.92,SW,221,0.0,4.0,98,0.00,,,0.00,Wunderground v.1.15,2013-07-19 11:40:00,
2013-07-19 04:50:00,52.4,51.9,29.92,SW,221,0.0,4.0,98,0.00,,,0.00,Wunderground v.1.15,2013-07-19 11:50:00,
2013-07-19 04:55:00,52.4,51.9,29.92,SW,221,0.0,4.0,98,0.00,,,0.00,Wunderground v.1.15,2013-07-19 11:55:00,
2013-07-19 05:00:00,52.4,51.9,29.92,SW,221,0.0,4.0,98,0.00,,,0.00,Wunderground v.1.15,2013-07-19 12:00:00,
2013-07-19 05:05:00,52.4,51.9,29.92,SW,221,0.0,4.0,98,0.00,,,0.00,Wunderground v.1.15,2013-07-19 12:05:00,
2013-07-19 05:10:00,52.4,51.9,29.92,SW,221,0.0,4.0,98,0.00,,,0.00,Wunderground v.1.15,2013-07-19 12:10:00,
2013-07-19 05:20:00,52.5,52.0,29.92,SW,221,0.0,4.0,98,0.00,,,0.00,Wunderground v.1.15,2013-07-19 12:20:00,
2013-07-19 05:25:00,52.4,51.9,29.92,SW,221,0.0,4.0,98,0.00,,,0.00,Wunderground v.1.15,2013-07-19 12:25:00,
2013-07-19 05:30:00,52.3,51.8,29.92,SW,221,0.0,4.0,98,0.00,,,0.00,Wunderground v.1.15,2013-07-19 12:30:00,
2013-07-19 05:35:00,52.3,51.8,29.92,SW,221,1.0,4.0,98,0.00,,,0.00,Wunderground v.1.15,2013-07-19 12:35:00,
2013-07-19 05:40:00,52.3,51.8,29.92,SW,221,1.0,1.0,98,0.00,,,0.00,Wunderground v.1.15,2013-07-19 12:40:00,
2013-07-19 05:50:00,52.3,51.8,29.92,SW,221,1.0,4.0,98,0.00,,,0.00,Wunderground v.1.15,2013-07-19 12:50:00,
2013-07-19 05:55:00,52.3,51.8,29.93,SW,221,0.0,4.0,98,0.00,,,0.00,Wunderground v.1.15,2013-07-19 12:55:00,
2013-07-19 06:00:00,52.3,51.8,29.93,SW,221,0.0,4.0,98,0.00,,,0.00,Wunderground v.1.15,2013-07-19 13:00:00,
2013-07-19 06:05:00,52.3,51.8,29.93,SW,221,0.0,4.0,98,0.00,,,0.00,Wunderground v.1.15,2013-07-19 13:05:00,
2013-07-19 06:10:00,52.3,51.8,29.93,SW,221,0.0,4.0,98,0.00,,,0.00,Wunderground v.1.15,2013-07-19 13:10:00,
2013-07-19 06:15:00,52.3,51.8,29.93,SW,221,1.0,4.0,98,0.00,,,0.00,Wunderground v.1.15,2013-07-19 13:15:00,
2013-07-19 06:25:00,52.3,51.8,29.93,SW,221,0.0,4.0,98,0.00,,,0.00,Wunderground v.1.15,2013-07-19 13:25:00,
2013-07-19 06:30:00,52.3,51.8,29.93,SW,221,0.0,4.0,98,0.00,,,0.00,Wunderground v.1.15,2013-07-19 13:30:00,
2013-07-19 06:35:00,52.4,51.9,29.93,SW,221,0.0,4.0,98,0.00,,,0.00,Wunderground v.1.15,2013-07-19 13:35:00,
2013-07-19 06:40:00,52.4,51.9,29.94,SW,222,0.0,4.0,98,0.00,,,0.00,Wunderground v.1.15,2013-07-19 13:40:00,
2013-07-19 06:45:00,52.3,51.8,29.94,SW,222,0.0,4.0,98,0.00,,,0.00,Wunderground v.1.15,2013-07-19 13:45:00,
2013-07-19 06:55:00,52.3,51.8,29.94,SW,222,0.0,4.0,98,0.00,,,0.00,Wunderground v.1.15,2013-07-19 13:55:00,
2013-07-19 07:00:00,52.2,51.7,29.93,WNW,290,0.0,4.0,98,0.00,,,0.00,Wunderground v.1.15,2013-07-19 14:00:00,
2013-07-19 07:05:00,52.2,51.7,29.94,WNW,290,0.0,4.0,98,0.00,,,0.00,Wunderground v.1.15,2013-07-19 14:05:00,
2013-07-19 07:10:00,52.3,51.8,29.94,WNW,300,0.0,4.0,98,0.00,,,0.00,Wunderground v.1.15,2013-07-19 14:10:00,
2013-07-19 07:15:00,52.4,51.9,29.94,WNW,300,0.0,4.0,98,0.00,,,0.00,Wunderground v.1.15,2013-07-19 14:15:00,
2013-07-19 07:25:00,52.5,52.2,29.94,SW,230,0.0,4.0,99,0.00,,,0.00,Wunderground v.1.15,2013-07-19 14:25:00,
2013-07-19 07:30:00,52.6,52.3,29.94,West,269,0.0,4.0,99,0.00,,,0.00,Wunderground v.1.15,2013-07-19 14:30:00,
2013-07-19 07:35:00,52.6,52.3,29.94,West,268,1.0,4.0,99,0.00,,,0.00,Wunderground v.1.15,2013-07-19 14:35:00,
2013-07-19 07:40:00,52.5,52.2,29.94,West,267,1.0,1.0,99,0.00,,,0.00,Wunderground v.1.15,2013-07-19 14:40:00,
2013-07-19 07:45:00,52.4,51.9,29.94,West,267,0.0,4.0,98,0.00,,,0.00,Wunderground v.1.15,2013-07-19 14:45:00,
2013-07-19 07:50:00,52.4,51.9,29.94,NNW,343,0.0,4.0,98,0.00,,,0.00,Wunderground v.1.15,2013-07-19 14:50:00,
2013-07-19 08:00:00,52.6,52.3,29.94,NNW,342,0.0,4.0,99,0.00,,,0.00,Wunderground v.1.15,2013-07-19 15:00:00,
2013-07-19 08:05:00,52.8,52.5,29.94,NNW,342,0.0,4.0,99,0.00,,,0.00,Wunderground v.1.15,2013-07-19 15:05:00,
2013-07-19 08:10:00,52.8,52.3,29.94,NNW,342,0.0,4.0,98,0.00,,,0.00,Wunderground v.1.15,2013-07-19 15:10:00,
2013-07-19 08:15:00,52.8,52.3,29.94,NNW,342,0.0,4.0,98,0.00,,,0.00,Wunderground v.1.15,2013-07-19 15:15:00,
2013-07-19 08:25:00,52.8,52.3,29.95,NNE,16,1.0,4.0,98,0.00,,,0.00,Wunderground v.1.15,2013-07-19 15:25:00,
2013-07-19 08:30:00,52.8,52.3,29.95,NNE,16,1.0,1.0,98,0.00,,,0.00,Wunderground v.1.15,2013-07-19 15:30:00,
2013-07-19 08:35:00,52.8,52.3,29.95,NNE,16,0.0,4.0,98,0.00,,,0.00,Wunderground v.1.15,2013-07-19 15:35:00,
2013-07-19 08:40:00,53.1,52.8,29.95,NNE,16,0.0,4.0,99,0.00,,,0.00,Wunderground v.1.15,2013-07-19 15:40:00,
2013-07-19 08:50:00,53.1,52.6,29.95,NNW,335,1.0,1.0,98,0.00,,,0.00,Wunderground v.1.15,2013-07-19 15:50:00,
2013-07-19 08:55:00,53.4,52.8,29.95,NNW,332,0.0,3.0,98,0.00,,,0.00,Wunderground v.1.15,2013-07-19 15:55:00,
2013-07-19 09:00:00,53.5,52.9,29.95,NW,321,1.0,4.0,98,0.00,,,0.00,Wunderground v.1.15,2013-07-19 16:00:00,
2013-07-19 09:05:00,53.7,53.1,29.95,WNW,302,1.0,4.0,98,0.00,,,0.00,Wunderground v.1.15,2013-07-19 16:05:00,
2013-07-19 09:10:00,53.7,53.1,29.95,WSW,257,1.0,1.0,98,0.00,,,0.00,Wunderground v.1.15,2013-07-19 16:10:00,
2013-07-19 09:15:00,53.9,53.3,29.95,WSW,257,1.0,4.0,98,0.00,,,0.00,Wunderground v.1.15,2013-07-19 16:15:00,
2013-07-19 09:25:00,54.3,53.5,29.95,WSW,257,0.0,4.0,97,0.00,,,0.00,Wunderground v.1.15,2013-07-19 16:25:00,
2013-07-19 09:30:00,54.5,53.7,29.95,WSW,257,0.0,4.0,97,0.00,,,0.00,Wunderground v.1.15,2013-07-19 16:30:00,
2013-07-19 09:35:00,54.9,54.1,29.95,WSW,257,0.0,4.0,97,0.00,,,0.00,Wunderground v.1.15,2013-07-19 16:35:00,
2013-07-19 09:40:00,55.2,54.1,29.95,WSW,257,1.0,4.0,96,0.00,,,0.00,Wunderground v.1.15,2013-07-19 16:40:00,
2013-07-19 09:45:00,55.5,54.1,29.95,WSW,250,1.0,4.0,95,0.00,,,0.00,Wunderground v.1.15,2013-07-19 16:45:00,
2013-07-19 09:50:00,55.7,54.0,29.94,WNW,289,1.0,1.0,94,0.00,,,0.00,Wunderground v.1.15,2013-07-19 16:50:00,
2013-07-19 09:55:00,56.2,54.5,29.95,WNW,290,1.0,3.0,94,0.00,,,0.00,Wunderground v.1.15,2013-07-19 16:55:00,
2013-07-19 10:05:00,56.9,54.6,29.95,NW,320,2.0,4.0,92,0.00,,,0.00,Wunderground v.1.15,2013-07-19 17:05:00,
2013-07-19 10:10:00,57.5,55.2,29.95,NW,320,1.0,1.0,92,0.00,,,0.00,Wunderground v.1.15,2013-07-19 17:10:00,
2013-07-19 10:15:00,58.5,55.3,29.95,WSW,237,1.0,2.0,89,0.00,,,0.00,Wunderground v.1.15,2013-07-19 17:15:00,
2013-07-19 10:20:00,58.9,55.4,29.95,WSW,251,1.0,1.0,88,0.00,,,0.00,Wunderground v.1.15,2013-07-19 17:20:00,
2013-07-19 10:30:00,60.1,55.9,29.94,West,267,1.0,4.0,86,0.00,,,0.00,Wunderground v.1.15,2013-07-19 17:30:00,
2013-07-19 10:35:00,60.4,55.9,29.94,West,267,1.0,4.0,85,0.00,,,0.00,Wunderground v.1.15,2013-07-19 17:35:00,
2013-07-19 10:40:00,61.1,56.2,29.94,West,274,2.0,2.0,84,0.00,,,0.00,Wunderground v.1.15,2013-07-19 17:40:00,
2013-07-19 10:45:00,62.0,56.8,29.94,West,273,2.0,4.0,83,0.00,,,0.00,Wunderground v.1.15,2013-07-19 17:45:00,
2013-07-19 10:50:00,62.7,56.8,29.94,West,272,1.0,4.0,81,0.00,,,0.00,Wunderground v.1.15,2013-07-19 17:50:00,
2013-07-19 11:00:00,64.1,57.1,29.94,WSW,254,1.0,1.0,78,0.00,,,0.00,Wunderground v.1.15,2013-07-19 18:00:00,
2013-07-19 11:05:00,65.0,57.6,29.94,West,260,1.0,4.0,77,0.00,,,0.00,Wunderground v.1.15,2013-07-19 18:05:00,
2013-07-19 11:10:00,65.7,57.6,29.94,West,270,1.0,1.0,75,0.00,,,0.00,Wunderground v.1.15,2013-07-19 18:10:00,
2013-07-19 11:20:00,65.9,57.4,29.94,WSW,252,2.0,2.0,74,0.00,,,0.00,Wunderground v.1.15,2013-07-19 18:20:00,
2013-07-19 11:25:00,66.5,58.0,29.94,West,273,2.0,3.0,74,0.00,,,0.00,Wunderground v.1.15,2013-07-19 18:25:00,
2013-07-19 11:30:00,67.3,58.0,29.93,WSW,253,2.0,2.0,72,0.00,,,0.00,Wunderground v.1.15,2013-07-19 18:30:00,
2013-07-19 11:35:00,67.9,58.5,29.93,West,271,3.0,4.0,72,0.00,,,0.00,Wunderground v.1.15,2013-07-19 18:35:00,
2013-07-19 11:40:00,68.1,58.3,29.93,WNW,285,4.0,4.0,71,0.00,,,0.00,Wunderground v.1.15,2013-07-19 18:40:00,
2013-07-19 11:50:00,68.8,58.6,29.93,SW,230,5.0,5.0,70,0.00,,,0.00,Wunderground v.1.15,2013-07-19 18:50:00,
2013-07-19 11:55:00,68.8,58.6,29.93,WSW,240,5.0,5.0,70,0.00,,,0.00,Wunderground v.1.15,2013-07-19 18:55:00,
2013-07-19 12:00:00,69.4,58.8,29.93,WSW,240,6.0,10.0,69,0.00,,,0.00,Wunderground v.1.15,2013-07-19 19:00:00,
2013-07-19 12:05:00,68.9,58.3,29.93,WSW,243,8.0,10.0,69,0.00,,,0.00,Wunderground v.1.15,2013-07-19 19:05:00,
2013-07-19 12:10:00,68.5,58.3,29.93,WSW,247,8.0,8.0,70,0.00,,,0.00,Wunderground v.1.15,2013-07-19 19:10:00,
2013-07-19 12:15:00,68.7,58.5,29.93,WSW,246,7.0,8.0,70,0.00,,,0.00,Wunderground v.1.15,2013-07-19 19:15:00,
2013-07-19 12:25:00,69.0,58.4,29.93,SW,227,7.0,7.0,69,0.00,,,0.00,Wunderground v.1.15,2013-07-19 19:25:00,
2013-07-19 12:30:00,68.5,57.9,29.93,WSW,238,7.0,8.0,69,0.00,,,0.00,Wunderground v.1.15,2013-07-19 19:30:00,
2013-07-19 12:35:00,67.6,57.5,29.92,SSW,192,8.0,8.0,70,0.00,,,0.00,Wunderground v.1.15,2013-07-19 19:35:00,
2013-07-19 12:40:00,67.8,57.7,29.93,WSW,253,8.0,8.0,70,0.00,,,0.00,Wunderground v.1.15,2013-07-19 19:40:00,
2013-07-19 12:50:00,66.9,57.2,29.92,West,263,8.0,10.0,71,0.00,,,0.00,Wunderground v.1.15,2013-07-19 19:50:00,
2013-07-19 12:55:00,66.6,57.7,29.92,WSW,247,9.0,10.0,73,0.00,,,0.00,Wunderground v.1.15,2013-07-19 19:55:00,
2013-07-19 13:00:00,66.3,57.4,29.92,WNW,284,9.0,9.0,73,0.00,,,0.00,Wunderground v.1.15,2013-07-19 20:00:00,
2013-07-19 13:10:00,66.8,57.5,29.92,WNW,295,9.0,9.0,72,0.00,,,0.00,Wunderground v.1.15,2013-07-19 20:10:00,
2013-07-19 13:15:00,66.5,57.2,29.91,WNW,285,10.0,12.0,72,0.00,,,0.00,Wunderground v.1.15,2013-07-19 20:15:00,
2013-07-19 13:20:00,66.2,57.3,29.91,WSW,248,10.0,12.0,73,0.00,,,0.00,Wunderground v.1.15,2013-07-19 20:20:00,
2013-07-19 13:25:00,66.4,57.9,29.91,WNW,291,9.0,12.0,74,0.00,,,0.00,Wunderground v.1.15,2013-07-19 20:25:00,
2013-07-19 13:30:00,67.5,57.8,29.91,West,262,8.0,8.0,71,0.00,,,0.00,Wunderground v.1.15,2013-07-19 20:30:00,
2013-07-19 13:40:00,66.4,56.7,29.91,SSW,205,8.0,8.0,71,0.00,,,0.00,Wunderground v.1.15,2013-07-19 20:40:00,
2013-07-19 13:45:00,66.7,57.4,29.91,SSW,205,8.0,8.0,72,0.00,,,0.00,Wunderground v.1.15,2013-07-19 20:45:00,
2013-07-19 13:50:00,66.5,56.8,29.91,SW,217,7.0,8.0,71,0.00,,,0.00,Wunderground v.1.15,2013-07-19 20:50:00,
2013-07-19 13:55:00,66.4,57.1,29.91,WSW,240,8.0,8.0,72,0.00,,,0.00,Wunderground v.1.15,2013-07-19 20:55:00,
2013-07-19 14:00:00,66.9,56.8,29.90,WSW,246,8.0,8.0,70,0.00,,,0.00,Wunderground v.1.15,2013-07-19 21:00:00,
2013-07-19 14:10:00,66.2,56.5,29.90,SSW,195,8.0,8.0,71,0.00,,,0.00,Wunderground v.1.15,2013-07-19 21:10:00,
2013-07-19 14:15:00,65.6,56.3,29.90,WSW,246,8.0,10.0,72,0.00,,,0.00,Wunderground v.1.15,2013-07-19 21:15:00,
2013-07-19 14:20:00,65.6,56.3,29.90,SW,236,9.0,9.0,72,0.00,,,0.00,Wunderground v.1.15,2013-07-19 21:20:00,
2013-07-19 14:25:00,65.5,56.2,29.90,SW,221,9.0,9.0,72,0.00,,,0.00,Wunderground v.1.15,2013-07-19 21:25:00,
2013-07-19 14:30:00,66.0,55.9,29.90,WSW,256,8.0,8.0,70,0.00,,,0.00,Wunderground v.1.15,2013-07-19 21:30:00,
2013-07-19 14:40:00,67.3,56.4,29.90,SW,228,6.0,6.0,68,0.00,,,0.00,Wunderground v.1.15,2013-07-19 21:40:00,
2013-07-19 14:45:00,66.8,55.9,29.90,SSW,204,7.0,9.0,68,0.00,,,0.00,Wunderground v.1.15,2013-07-19 21:45:00,
2013-07-19 14:50:00,66.5,56.0,29.89,SSW,211,8.0,8.0,69,0.00,,,0.00,Wunderground v.1.15,2013-07-19 21:50:00,
2013-07-19 14:55:00,66.9,56.0,29.89,SSW,211,8.0,8.0,68,0.00,,,0.00,Wunderground v.1.15,2013-07-19 21:55:00,
2013-07-19 15:00:00,66.3,56.2,29.89,South,189,8.0,9.0,70,0.00,,,0.00,Wunderground v.1.15,2013-07-19 22:00:00,
2013-07-19 15:10:00,66.3,56.2,29.89,SSW,210,8.0,8.0,70,0.00,,,0.00,Wunderground v.1.15,2013-07-19 22:10:00,
2013-07-19 15:15:00,65.7,55.6,29.89,SW,220,8.0,9.0,70,0.00,,,0.00,Wunderground v.1.15,2013-07-19 22:15:00,
2013-07-19 15:20:00,65.0,55.8,29.89,SW,222,9.0,9.0,72,0.00,,,0.00,Wunderground v.1.15,2013-07-19 22:20:00,
2013-07-19 15:30:00,64.1,54.9,29.88,SSW,209,10.0,10.0,72,0.00,,,0.00,Wunderground v.1.15,2013-07-19 22:30:00,
2013-07-19 15:35:00,64.3,55.1,29.88,SSW,213,10.0,10.0,72,0.00,,,0.00,Wunderground v.1.15,2013-07-19 22:35:00,
2013-07-19 15:40:00,64.4,55.6,29.88,SSW,209,9.0,11.0,73,0.00,,,0.00,Wunderground v.1.15,2013-07-19 22:40:00,
2013-07-19 15:45:00,64.9,55.7,29.88,SW,226,8.0,11.0,72,0.00,,,0.00,Wunderground v.1.15,2013-07-19 22:45:00,
2013-07-19 15:50:00,65.2,55.9,29.88,SW,220,8.0,10.0,72,0.00,,,0.00,Wunderground v.1.15,2013-07-19 22:50:00,
2013-07-19 15:55:00,65.7,56.0,29.88,SSW,207,7.0,10.0,71,0.00,,,0.00,Wunderground v.1.15,2013-07-19 22:55:00,
2013-07-19 16:05:00,65.1,55.1,29.87,SW,219,9.0,10.0,70,0.00,,,0.00,Wunderground v.1.15,2013-07-19 23:05:00,
2013-07-19 16:10:00,65.0,55.4,29.87,SW,222,9.0,9.0,71,0.00,,,0.00,Wunderground v.1.15,2013-07-19 23:10:00,
2013-07-19 16:15:00,65.2,55.9,29.87,SSW,213,8.0,9.0,72,0.00,,,0.00,Wunderground v.1.15,2013-07-19 23:15:00,
2013-07-19 16:20:00,65.2,55.9,29.87,SW,219,7.0,7.0,72,0.00,,,0.00,Wunderground v.1.15,2013-07-19 23:20:00,
2013-07-19 16:25:00,65.6,55.5,29.87,SSW,205,7.0,7.0,70,0.00,,,0.00,Wunderground v.1.15,2013-07-19 23:25:00,
2013-07-19 16:30:00,65.0,55.4,29.87,SW,216,7.0,7.0,71,0.00,,,0.00,Wunderground v.1.15,2013-07-19 23:30:00,
2013-07-19 16:40:00,64.5,55.3,29.87,SSW,207,8.0,8.0,72,0.00,,,0.00,Wunderground v.1.15,2013-07-19 23:40:00,
2013-07-19 16:45:00,64.7,55.5,29.87,SW,227,7.0,10.0,72,0.00,,,0.00,Wunderground v.1.15,2013-07-19 23:45:00,
2013-07-19 16:50:00,64.7,55.5,29.87,SSW,209,7.0,9.0,72,0.00,,,0.00,Wunderground v.1.15,2013-07-19 23:50:00,
2013-07-19 16:55:00,64.4,55.2,29.87,SW,219,7.0,10.0,72,0.00,,,0.00,Wunderground v.1.15,2013-07-19 23:55:00,
2013-07-19 17:00:00,63.9,55.1,29.87,SW,220,8.0,8.0,73,0.00,,,0.00,Wunderground v.1.15,2013-07-20 00:00:00,
2013-07-19 17:05:00,64.1,55.3,29.87,WSW,240,7.0,8.0,73,0.00,,,0.00,Wunderground v.1.15,2013-07-20 00:05:00,
2013-07-19 17:15:00,63.6,55.2,29.86,SW,224,8.0,10.0,74,0.00,,,0.00,Wunderground v.1.15,2013-07-20 00:15:00,
2013-07-19 17:20:00,63.6,55.2,29.86,SW,231,9.0,9.0,74,0.00,,,0.00,Wunderground v.1.15,2013-07-20 00:20:00,
2013-07-19 17:25:00,63.2,54.8,29.86,SW,220,10.0,11.0,74,0.00,,,0.00,Wunderground v.1.15,2013-07-20 00:25:00,
2013-07-19 17:30:00,63.0,54.6,29.85,WSW,243,10.0,10.0,74,0.00,,,0.00,Wunderground v.1.15,2013-07-20 00:30:00,
2013-07-19 17:35:00,62.3,54.3,29.85,SSW,205,9.0,10.0,75,0.00,,,0.00,Wunderground v.1.15,2013-07-20 00:35:00,
2013-07-19 17:40:00,62.4,54.7,29.85,SW,234,9.0,13.0,76,0.00,,,0.00,Wunderground v.1.15,2013-07-20 00:40:00,
2013-07-19 17:50:00,62.6,54.6,29.84,South,184,7.0,7.0,75,0.00,,,0.00,Wunderground v.1.15,2013-07-20 00:50:00,
2013-07-19 17:55:00,62.7,54.7,29.84,SSW,198,6.0,7.0,75,0.00,,,0.00,Wunderground v.1.15,2013-07-20 00:55:00,
2013-07-19 18:00:00,62.7,54.7,29.84,SSW,211,7.0,7.0,75,0.00,,,0.00,Wunderground v.1.15,2013-07-20 01:00:00,
2013-07-19 18:05:00,62.6,54.6,29.85,SSW,209,7.0,11.0,75,0.00,,,0.00,Wunderground v.1.15,2013-07-20 01:05:00,
2013-07-19 18:15:00,62.1,54.4,29.84,SSW,196,7.0,7.0,76,0.00,,,0.00,Wunderground v.1.15,2013-07-20 01:15:00,
2013-07-19 18:20:00,62.3,54.3,29.84,SW,218,7.0,12.0,75,0.00,,,0.00,Wunderground v.1.15,2013-07-20 01:20:00,
2013-07-19 18:25:00,61.8,54.2,29.84,SSW,195,7.0,12.0,76,0.00,,,0.00,Wunderground v.1.15,2013-07-20 01:25:00,
2013-07-19 18:30:00,61.7,54.1,29.84,SW,218,6.0,6.0,76,0.00,,,0.00,Wunderground v.1.15,2013-07-20 01:30:00,
2013-07-19 18:35:00,61.6,54.3,29.84,SSW,206,6.0,6.0,77,0.00,,,0.00,Wunderground v.1.15,2013-07-20 01:35:00,
2013-07-19 18:40:00,61.3,54.0,29.83,SW,226,6.0,7.0,77,0.00,,,0.00,Wunderground v.1.15,2013-07-20 01:40:00,
2013-07-19 18:50:00,61.2,54.3,29.83,SSW,205,5.0,6.0,78,0.00,,,0.00,Wunderground v.1.15,2013-07-20 01:50:00,
2013-07-19 18:55:00,60.8,53.9,29.83,SSW,205,5.0,9.0,78,0.00,,,0.00,Wunderground v.1.15,2013-07-20 01:55:00,
2013-07-19 19:00:00,60.3,53.8,29.83,SSW,210,6.0,6.0,79,0.00,,,0.00,Wunderground v.1.15,2013-07-20 02:00:00,
2013-07-19 19:05:00,60.2,54.0,29.84,SSW,196,6.0,6.0,80,0.00,,,0.00,Wunderground v.1.15,2013-07-20 02:05:00,
2013-07-19 19:10:00,59.8,53.6,29.83,SSW,194,6.0,7.0,80,0.00,,,0.00,Wunderground v.1.15,2013-07-20 02:10:00,
2013-07-19 19:20:00,59.2,53.4,29.84,SSW,202,6.0,6.0,81,0.00,,,0.00,Wunderground v.1.15,2013-07-20 02:20:00,
2013-07-19 19:25:00,58.9,53.4,29.83,SW,228,5.0,6.0,82,0.00,,,0.00,Wunderground v.1.15,2013-07-20 02:25:00,
2013-07-19 19:30:00,58.6,53.1,29.83,SSW,213,5.0,5.0,82,0.00,,,0.00,Wunderground v.1.15,2013-07-20 02:30:00,
2013-07-19 19:35:00,58.2,53.1,29.83,SSW,204,5.0,5.0,83,0.00,,,0.00,Wunderground v.1.15,2013-07-20 02:35:00,
2013-07-19 19:40:00,57.9,53.1,29.83,SSW,207,5.0,5.0,84,0.00,,,0.00,Wunderground v.1.15,2013-07-20 02:40:00,
2013-07-19 19:50:00,57.3,52.8,29.83,SSW,210,4.0,4.0,85,0.00,,,0.00,Wunderground v.1.15,2013-07-20 02:50:00,
2013-07-19 19:55:00,56.9,52.8,29.83,SSW,209,4.0,9.0,86,0.00,,,0.00,Wunderground v.1.15,2013-07-20 02:55:00,
2013-07-19 20:00:00,56.5,52.4,29.83,SW,214,4.0,6.0,86,0.00,,,0.00,Wunderground v.1.15,2013-07-20 03:00:00,
2013-07-19 20:05:00,56.1,52.3,29.83,SW,214,3.0,6.0,87,0.00,,,0.00,Wunderground v.1.15,2013-07-20 03:05:00,
2013-07-19 20:15:00,55.6,52.1,29.83,SW,219,3.0,4.0,88,0.00,,,0.00,Wunderground v.1.15,2013-07-20 03:15:00,
2013-07-19 20:20:00,55.5,52.3,29.83,WSW,254,1.0,1.0,89,0.00,,,0.00,Wunderground v.1.15,2013-07-20 03:20:00,
2013-07-19 20:25:00,55.1,51.9,29.83,WSW,244,0.0,4.0,89,0.00,,,0.00,Wunderground v.1.15,2013-07-20 03:25:00,
2013-07-19 20:30:00,54.9,52.0,29.84,SW,227,1.0,1.0,90,0.00,,,0.00,Wunderground v.1.15,2013-07-20 03:30:00,
2013-07-19 20:35:00,54.6,51.7,29.84,SW,225,1.0,4.0,90,0.00,,,0.00,Wunderground v.1.15,2013-07-20 03:35:00,
2013-07-19 20:45:00,54.3,51.7,29.84,SW,226,0.0,4.0,91,0.00,,,0.00,Wunderground v.1.15,2013-07-20 03:45:00,
2013-07-19 20:50:00,54.2,51.6,29.84,SW,226,0.0,4.0,91,0.00,,,0.00,Wunderground v.1.15,2013-07-20 03:50:00,
2013-07-19 20:55:00,54.1,51.8,29.84,SW,225,1.0,4.0,92,0.00,,,0.00,Wunderground v.1.15,2013-07-20 03:55:00,
2013-07-19 21:00:00,54.0,51.7,29.84,SW,225,2.0,2.0,92,0.00,,,0.00,Wunderground v.1.15,2013-07-20 04:00:00,
2013-07-19 21:05:00,53.9,51.6,29.84,SW,225,1.0,4.0,92,0.00,,,0.00,Wunderground v.1.15,2013-07-20 04:05:00,
2013-07-19 21:10:00,53.8,51.8,29.84,SW,225,1.0,1.0,93,0.00,,,0.00,Wunderground v.1.15,2013-07-20 04:10:00,
2013-07-19 21:15:00,53.8,51.8,29.84,SW,225,0.0,4.0,93,0.00,,,0.00,Wunderground v.1.15,2013-07-20 04:15:00,
2013-07-19 21:20:00,53.7,51.7,29.85,SW,225,0.0,4.0,93,0.00,,,0.00,Wunderground v.1.15,2013-07-20 04:20:00,
2013-07-19 21:25:00,53.6,51.6,29.85,SW,225,0.0,4.0,93,0.00,,,0.00,Wunderground v.1.15,2013-07-20 04:25:00,
2013-07-19 21:30:00,53.6,51.6,29.85,SW,223,0.0,4.0,93,0.00,,,0.00,Wunderground v.1.15,2013-07-20 04:30:00,
2013-07-19 21:35:00,53.6,51.6,29.85,SW,223,1.0,4.0,93,0.00,,,0.00,Wunderground v.1.15,2013-07-20 04:35:00,
2013-07-19 21:40:00,53.5,51.5,29.85,SW,223,1.0,1.0,93,0.00,,,0.00,Wunderground v.1.15,2013-07-20 04:40:00,
2013-07-19 21:50:00,53.4,51.4,29.85,SW,223,1.0,1.0,93,0.00,,,0.00,Wunderground v.1.15,2013-07-20 04:50:00,
2013-07-19 21:55:00,53.3,51.6,29.85,SW,223,0.0,4.0,94,0.00,,,0.00,Wunderground v.1.15,2013-07-20 04:55:00,
2013-07-19 22:00:00,53.3,51.3,29.85,SW,223,0.0,4.0,93,0.00,,,0.00,Wunderground v.1.15,2013-07-20 05:00:00,
2013-07-19 22:05:00,53.2,51.5,29.85,SW,223,0.0,4.0,94,0.00,,,0.00,Wunderground v.1.15,2013-07-20 05:05:00,
2013-07-19 22:10:00,53.2,51.5,29.85,SW,223,0.0,4.0,94,0.00,,,0.00,Wunderground v.1.15,2013-07-20 05:10:00,
2013-07-19 22:15:00,53.1,51.4,29.85,SW,223,0.0,4.0,94,0.00,,,0.00,Wunderground v.1.15,2013-07-20 05:15:00,
2013-07-19 22:25:00,53.1,51.4,29.85,SW,223,0.0,4.0,94,0.00,,,0.00,Wunderground v.1.15,2013-07-20 05:25:00,
2013-07-19 22:30:00,53.2,51.8,29.85,SW,223,0.0,4.0,95,0.00,,,0.00,Wunderground v.1.15,2013-07-20 05:30:00,
2013-07-19 22:35:00,53.3,51.9,29.85,SW,223,1.0,4.0,95,0.00,,,0.00,Wunderground v.1.15,2013-07-20 05:35:00,
2013-07-19 22:40:00,53.3,51.9,29.85,SW,223,1.0,4.0,95,0.00,,,0.00,Wunderground v.1.15,2013-07-20 05:40:00,
2013-07-19 22:45:00,53.4,52.0,29.85,SW,223,1.0,4.0,95,0.00,,,0.00,Wunderground v.1.15,2013-07-20 05:45:00,
2013-07-19 22:55:00,53.6,51.9,29.85,SW,221,1.0,4.0,94,0.00,,,0.00,Wunderground v.1.15,2013-07-20 05:55:00,
2013-07-19 23:00:00,53.6,51.9,29.85,SW,221,1.0,1.0,94,0.00,,,0.00,Wunderground v.1.15,2013-07-20 06:00:00,
2013-07-19 23:05:00,53.6,51.9,29.85,SW,221,1.0,3.0,94,0.00,,,0.00,Wunderground v.1.15,2013-07-20 06:05:00,
2013-07-19 23:10:00,53.6,51.9,29.85,SW,221,1.0,4.0,94,0.00,,,0.00,Wunderground v.1.15,2013-07-20 06:10:00,
2013-07-19 23:15:00,53.6,51.9,29.85,SW,220,2.0,4.0,94,0.00,,,0.00,Wunderground v.1.15,2013-07-20 06:15:00,
2013-07-19 23:20:00,53.6,51.9,29.85,SW,220,1.0,1.0,94,0.00,,,0.00,Wunderground v.1.15,2013-07-20 06:20:00,
2013-07-19 23:30:00,53.5,52.1,29.85,SW,220,2.0,4.0,95,0.00,,,0.00,Wunderground v.1.15,2013-07-20 06:30:00,
2013-07-19 23:35:00,53.5,52.1,29.85,SW,219,3.0,4.0,95,0.00,,,0.00,Wunderground v.1.15,2013-07-20 06:35:00,
2013-07-19 23:40:00,53.5,52.1,29.86,SW,220,2.0,4.0,95,0.00,,,0.00,Wunderground v.1.15,2013-07-20 06:40:00,
2013-07-19 23:45:00,53.5,52.1,29.86,SW,220,1.0,4.0,95,0.00,,,0.00,Wunderground v.1.15,2013-07-20 06:45:00,
2013-07-19 23:50:00,53.4,52.0,29.86,SW,220,2.0,2.0,95,0.00,,,0.00,Wunderground v.1.15,2013-07-20 06:50:00,